Satellite: NOAA-11
Catalog number: 19531
Epoch time:      10266.32109722
Element set:     222
Inclination:      098.7674 deg
RA of node:       353.6646 deg
Eccentricity:    0.0010773
Arg of perigee:   226.7122 deg
Mean anomaly:     133.3169 deg
Mean motion:   14.14934747 rev/day
Decay rate:      -1.86e-06 rev/day^2
Epoch rev:           13501
Checksum:              288

Satellite: NOAA-12
Catalog number: 21263
Epoch time:      10266.74801863
Element set:     716
Inclination:      098.7654 deg
RA of node:       279.8966 deg
Eccentricity:    0.0011673
Arg of perigee:   238.8810 deg
Mean anomaly:     121.1704 deg
Mean motion:   14.25655199 rev/day
Decay rate:        9.7e-07 rev/day^2
Epoch rev:             649
Checksum:              326

Satellite: MET-3/5
Catalog number: 21655
Epoch time:      10266.71181367
Element set:     921
Inclination:      082.5534 deg
RA of node:       239.0143 deg
Eccentricity:    0.0014904
Arg of perigee:   101.2668 deg
Mean anomaly:     259.0089 deg
Mean motion:   13.17026021 rev/day
Decay rate:        5.1e-07 rev/day^2
Epoch rev:           91864
Checksum:              280

Satellite: MET-2/21
Catalog number: 22782
Epoch time:      10265.48093073
Element set:    0891
Inclination:      082.5501 deg
RA of node:       175.2614 deg
Eccentricity:    0.0023459
Arg of perigee:   126.9256 deg
Mean anomaly:     233.4052 deg
Mean motion:   13.83649921 rev/day
Decay rate:        6.8e-07 rev/day^2
Epoch rev:           86153
Checksum:              306

Satellite: OKEAN-4
Catalog number: 23317
Epoch time:      10266.63947293
Element set:     347
Inclination:      082.5368 deg
RA of node:       261.9599 deg
Eccentricity:    0.0020314
Arg of perigee:   278.7766 deg
Mean anomaly:     081.1158 deg
Mean motion:   14.82863675 rev/day
Decay rate:       4.27e-06 rev/day^2
Epoch rev:           86104
Checksum:              334

Satellite: NOAA-14
Catalog number: 23455
Epoch time:      10266.79715919
Element set:     205
Inclination:      098.8721 deg
RA of node:       346.8251 deg
Eccentricity:    0.0008927
Arg of perigee:   320.3691 deg
Mean anomaly:     039.7314 deg
Mean motion:   14.13794277 rev/day
Decay rate:       -2.0e-08 rev/day^2
Epoch rev:           81152
Checksum:              312

Satellite: NOAA-15
Catalog number: 25338
Epoch time:      10266.81711799
Element set:     530
Inclination:      098.6297 deg
RA of node:       252.0226 deg
Eccentricity:    0.0011151
Arg of perigee:   143.4271 deg
Mean anomaly:     216.8146 deg
Mean motion:   14.24855774 rev/day
Decay rate:        8.7e-07 rev/day^2
Epoch rev:           64280
Checksum:              305

Satellite: RESURS
Catalog number: 25394
Epoch time:      10266.56395337
Element set:     610
Inclination:      098.3044 deg
RA of node:       279.2850 deg
Eccentricity:    0.0001063
Arg of perigee:   341.7576 deg
Mean anomaly:     018.3569 deg
Mean motion:   14.24209968 rev/day
Decay rate:        8.0e-08 rev/day^2
Epoch rev:           63435
Checksum:              307

Satellite: FENGYUN1
Catalog number: 25730
Epoch time:      10265.85783920
Element set:    0144
Inclination:      098.7933 deg
RA of node:       228.2980 deg
Eccentricity:    0.0022390
Arg of perigee:   352.2100 deg
Mean anomaly:     007.8691 deg
Mean motion:   14.08294241 rev/day
Decay rate:       7.63e-06 rev/day^2
Epoch rev:           58543
Checksum:              298

Satellite: OKEAN-0
Catalog number: 25860
Epoch time:      10266.53127760
Element set:     106
Inclination:      097.8452 deg
RA of node:       235.9515 deg
Eccentricity:    0.0001778
Arg of perigee:   094.9426 deg
Mean anomaly:     265.1985 deg
Mean motion:   14.73664310 rev/day
Decay rate:       1.18e-06 rev/day^2
Epoch rev:           60138
Checksum:              305

Satellite: NOAA-16
Catalog number: 26536
Epoch time:      10266.47035811
Element set:       6
Inclination:      099.1679 deg
RA of node:       286.2452 deg
Eccentricity:    0.0011155
Arg of perigee:   064.6124 deg
Mean anomaly:     295.6235 deg
Mean motion:   14.12578542 rev/day
Decay rate:       3.60e-06 rev/day^2
Epoch rev:           51570
Checksum:              293

Satellite: NOAA-17
Catalog number: 27453
Epoch time:      10266.35450042
Element set:       1
Inclination:      098.4213 deg
RA of node:       312.7955 deg
Eccentricity:    0.0011427
Arg of perigee:   205.8890 deg
Mean anomaly:     154.1704 deg
Mean motion:   14.24192247 rev/day
Decay rate:        9.8e-07 rev/day^2
Epoch rev:           42867
Checksum:              287

Satellite: NOAA-18
Catalog number: 28654
Epoch time:      10266.41499292
Element set:     489
Inclination:      098.9582 deg
RA of node:       212.4333 deg
Eccentricity:    0.0014953
Arg of perigee:   134.1507 deg
Mean anomaly:     226.0906 deg
Mean motion:   14.11391056 rev/day
Decay rate:       2.97e-06 rev/day^2
Epoch rev:           27529
Checksum:              321

